[[{"header":{"parameterUnit":"m.s-1","parameterCategory":1,"la1":30.2991,"la2":30.254,"lo1":-89.0895,"lo2":-89.0444,"dy":0.0017,"dx":0.0017,"nx":28,"ny":28,"refTime":"2024-04-11T03:00:00:Z","depth":0,"parameterNumber":2,"parameterNumberName":"U-component_of_WINDS"},"data":[0,0,0,0,0,0,0,0,0,0,0,0,0,0,0,0,0,0,0,0,0,0,0,0,0,0,0,0,0,0,0,0,0,0,0,0,0,0,0,0,0,0,0,0,0,0,0,0,0,0,0,0,0,0,0,0,0,0,4.1988,4.199,0,4.2154,4.2156,4.2158,4.2122,4.2119,4.2116,4.2113,4.2287,4.2295,4.2302,0,0,0,0,0,0,0,0,0,0,0,0,0,4.1643,4.165,4.1988,4.199,4.1992,4.2154,4.2156,4.2158,4.2123,4.2119,4.2115,4.2112,4.2285,4.2294,4.2303,0,0,0,0,0,0,0,0,0,0,0,0,0,4.18,4.1652,4.1987,4.1994,4.1996,4.2153,4.2156,4.2159,4.2123,4.2119,4.2114,4.211,4.2282,4.2293,4.2304,4.2467,0,0,4.2339,4.2343,0,0,0,0,0,0,0,0,4.1791,4.1812,4.1991,4.1993,4.1996,4.2112,4.2098,4.2262,4.2125,4.2075,4.2113,4.2107,4.2233,4.2248,4.229,4.2475,4.2483,4.234,4.2346,4.2351,4.2354,0,0,0,0,0,0,0,4.178,4.1805,4.2054,4.1993,4.1997,4.1989,4.2006,4.2129,4.2178,4.2079,4.2077,4.2097,4.2234,4.2279,4.2294,4.2485,4.2339,4.2349,4.2356,4.2361,4.2813,4.2818,0,0,0,0,0,0,4.1766,4.1796,4.2048,4.2059,4.188,4.1999,4.2018,4.208,4.2177,4.2187,4.2101,4.2094,4.2262,4.228,4.23,4.2497,4.2351,4.2362,4.2368,4.2808,4.2814,4.282,0,0,0,0,0,0,4.1759,4.1789,4.2042,4.1927,4.1958,4.201,4.208,4.2086,4.2131,4.2193,4.2202,4.2137,4.2259,4.2284,4.2425,4.2502,4.2367,4.2377,4.2802,4.281,4.2817,4.2893,0,0,0,0,0,0,4.1749,4.1787,4.1848,4.1928,4.1965,4.2164,4.2084,4.2092,4.215,4.2143,4.223,4.224,4.2257,4.2409,4.2437,4.2516,4.2386,4.2795,4.2805,4.2815,4.2884,4.2903,4.2918,0,0,0,0,0,4.1737,4.1864,4.1852,4.1882,4.2043,4.2169,4.2189,4.2205,4.2156,4.2219,4.2259,4.2237,4.2489,4.2424,4.2455,4.2538,4.279,4.2803,4.2814,4.2876,4.2899,4.2918,0,0,0,0,0,0,4.1793,4.1875,4.1862,4.2018,4.2087,4.2162,4.2242,4.2229,4.2314,4.2304,4.2322,4.2342,4.2486,4.2526,4.2452,4.2701,4.2633,4.2652,4.267,4.2692,4.2709,4.2696,4.2395,0,0,0,0,0,4.1823,4.1917,4.1984,4.2116,4.2151,4.2191,4.2246,4.2252,4.2324,4.2353,4.2404,4.2476,4.2571,4.2634,4.2725,4.2889,4.2908,4.2962,4.2979,4.2993,4.3009,4.31,4.3124,4.2859,4.2859,4.2858,0,0,4.1887,4.1944,4.2002,4.2128,4.2182,4.228,4.2215,4.2322,4.2395,4.237,4.2507,4.2546,4.2628,4.2781,4.2852,4.2819,4.3087,4.3008,4.3019,4.3028,4.3114,4.3139,4.3162,4.2867,4.2865,4.2864,0,0,4.2054,4.2106,4.2221,4.2276,4.2358,4.2383,4.2411,4.2489,4.2514,4.2651,4.2634,4.2722,4.2886,4.2944,4.2995,4.3184,4.3167,4.3214,4.3304,4.3392,4.3413,4.3431,4.3499,4.3523,4.3229,4.3229,4.323,0,4.2124,4.227,4.2283,4.2391,4.2447,4.2427,4.2545,4.2598,4.2706,4.2745,4.2707,4.2912,4.2966,4.3133,4.3179,4.3221,4.3254,4.3204,4.3408,4.3427,4.3445,4.3509,4.3535,4.3234,4.3234,4.3233,4.3233,0,4.2352,4.2454,4.2537,4.264,4.2706,4.2818,4.2849,4.2914,4.2915,4.2945,4.3085,4.3148,4.3251,4.3291,4.3294,4.346,4.3437,4.3404,4.3335,4.3475,4.3536,4.3561,4.3242,4.324,4.3238,4.3237,0,0,4.256,4.2667,4.2698,4.2744,4.2832,4.2912,4.3024,4.3123,4.3179,4.3254,4.3349,4.3487,4.3457,4.3515,4.3524,4.3601,4.3746,4.3558,4.356,4.3591,4.3933,4.3958,4.3986,4.3735,4.374,4.3744,4.3926,0,4.2735,4.293,4.2945,4.3122,4.3216,4.3198,4.3295,4.3361,4.3392,4.3477,4.3512,4.361,4.3562,4.3597,4.3672,4.3712,4.3815,4.37,4.3825,4.3829,4.3805,4.4018,4.4045,4.4214,4.395,4.3954,4.3957,0,4.2966,4.3046,4.3232,4.3306,4.3346,4.3433,4.3526,4.3607,4.3681,4.3698,4.3763,4.3761,4.3876,4.3804,4.3964,4.3885,4.3937,4.3964,4.3971,4.3984,4.3902,4.4037,4.4268,4.4294,4.3995,4.3992,4.3989,0,4.3099,4.3253,4.3384,4.3425,4.3515,4.3576,4.3617,4.3686,4.3745,4.3826,4.3865,4.3959,4.4011,4.4085,4.4108,4.4053,4.4268,4.4197,4.4286,4.4286,4.4333,4.433,4.4576,4.4366,4.4366,4.4365,4.4365,0,4.3293,4.3408,4.3445,4.3526,4.3654,4.367,4.3796,4.3833,4.3895,4.3983,4.3974,4.4058,4.4084,4.4172,4.4191,4.4321,4.4345,4.4363,4.4367,4.4364,4.4362,4.4398,4.4387,4.4372,4.437,4.4369,4.4368,0,4.3464,4.3493,4.3635,4.3708,4.3729,4.382,4.3883,4.3962,4.399,4.4103,4.413,4.4176,4.4279,4.431,4.4435,4.4448,4.46,4.4593,4.4575,4.4575,4.4663,4.4654,4.4942,4.498,4.4745,4.4747,4.4749,0,4.3586,4.3673,4.3755,4.3813,4.3856,4.3949,4.4009,4.4028,4.4091,4.4181,4.4249,4.435,4.4433,4.4599,4.4644,4.474,4.4735,4.483,4.475,4.4744,4.4737,4.4732,4.4741,4.4845,4.4847,4.4849,4.4851,0,4.38,4.381,4.3896,4.3987,4.4058,4.4131,4.4201,4.4249,4.4278,4.435,4.4454,4.4518,4.4644,4.4746,4.4842,4.4885,4.4874,4.4875,4.4901,4.4899,4.4885,4.4894,4.4616,4.4869,4.4867,4.4866,4.4865,4.4864,4.3951,4.4027,4.4097,4.4192,4.4247,4.4312,4.4389,4.4427,4.4514,4.4617,4.4624,4.4737,4.4809,4.4937,4.4985,4.5075,4.5048,4.5085,4.5095,4.5104,4.5111,4.487,4.5093,4.5092,4.5092,4.5092,4.5091,0,4.4164,4.4208,4.4295,4.4393,4.4468,4.4449,4.4525,4.459,4.469,4.4757,4.4837,4.4958,4.5056,4.5108,4.5206,4.5268,4.5265,4.5293,4.5289,4.5299,4.513,4.5098,4.5294,4.5294,4.5294,4.5294,4.5294,4.5294,4.4285,4.4413,4.4431,4.4587,4.463,4.474,4.4785,4.4846,4.4899,4.5033,4.5114,4.5147,4.5209,4.5311,4.54,4.5413,4.545,4.5482,4.5492,4.5332,4.5311,4.5292,4.5262,4.5489,4.549,4.5654,4.5655,4.5657]},{"header":{"parameterUnit":"m.s-1","parameterCategory":1,"la1":30.2991,"la2":30.254,"lo1":-89.0895,"lo2":-89.0444,"dy":0.0017,"dx":0.0017,"nx":28,"ny":28,"refTime":"2024-04-11T03:00:00:Z","depth":0,"parameterNumber":3,"parameterNumberName":"V-component_of_WINDS"},"data":[0,0,0,0,0,0,0,0,0,0,0,0,0,0,0,0,0,0,0,0,0,0,0,0,0,0,0,0,0,0,0,0,0,0,0,0,0,0,0,0,0,0,0,0,0,0,0,0,0,0,0,0,0,0,0,0,0,0,-1.2574,-1.2573,0,-1.2543,-1.2542,-1.2542,-1.2529,-1.2529,-1.2529,-1.2529,-1.2496,-1.2495,-1.2494,0,0,0,0,0,0,0,0,0,0,0,0,0,-1.2619,-1.2618,-1.2574,-1.2573,-1.2573,-1.2543,-1.2542,-1.2542,-1.2529,-1.2529,-1.2529,-1.253,-1.2496,-1.2495,-1.2494,0,0,0,0,0,0,0,0,0,0,0,0,0,-1.2595,-1.2618,-1.2574,-1.2563,-1.2562,-1.2543,-1.2542,-1.2542,-1.2529,-1.2529,-1.2529,-1.253,-1.2496,-1.2495,-1.2493,-1.2482,0,0,-1.2489,-1.2488,0,0,0,0,0,0,0,0,-1.2596,-1.2593,-1.2565,-1.2564,-1.2562,-1.254,-1.2546,-1.2522,-1.2529,-1.2541,-1.2529,-1.253,-1.251,-1.2507,-1.2501,-1.2481,-1.2479,-1.2489,-1.2488,-1.2487,-1.2487,0,0,0,0,0,0,0,-1.2598,-1.2594,-1.2561,-1.2564,-1.2563,-1.2559,-1.2555,-1.2541,-1.2525,-1.254,-1.2539,-1.2536,-1.2509,-1.2503,-1.2501,-1.2479,-1.2489,-1.2488,-1.2487,-1.2486,-1.2446,-1.2446,0,0,0,0,0,0,-1.2601,-1.2596,-1.2562,-1.256,-1.258,-1.2558,-1.2554,-1.2547,-1.2526,-1.2523,-1.2536,-1.2536,-1.2505,-1.2502,-1.2499,-1.2484,-1.2487,-1.2486,-1.2485,-1.2446,-1.2446,-1.2446,0,0,0,0,0,0,-1.2602,-1.2599,-1.2564,-1.2578,-1.2573,-1.2557,-1.2549,-1.2546,-1.254,-1.2522,-1.2519,-1.2532,-1.2505,-1.2501,-1.2487,-1.2483,-1.2485,-1.2484,-1.2447,-1.2446,-1.2446,-1.2454,0,0,0,0,0,0,-1.2604,-1.2599,-1.2595,-1.2578,-1.2572,-1.2552,-1.2549,-1.2546,-1.2538,-1.2537,-1.2518,-1.2515,-1.2505,-1.2489,-1.2485,-1.2481,-1.2483,-1.2447,-1.2446,-1.2446,-1.2454,-1.2455,-1.2455,0,0,0,0,0,-1.2605,-1.2599,-1.2595,-1.2591,-1.2568,-1.2552,-1.2549,-1.2538,-1.2537,-1.2533,-1.2522,-1.2516,-1.2484,-1.2487,-1.2483,-1.2478,-1.2447,-1.2447,-1.2446,-1.2454,-1.2454,-1.2455,0,0,0,0,0,0,-1.2616,-1.2596,-1.2592,-1.258,-1.2568,-1.255,-1.2544,-1.2539,-1.2526,-1.2526,-1.2512,-1.2508,-1.2494,-1.2485,-1.2489,-1.2466,-1.2465,-1.2464,-1.2473,-1.2473,-1.2473,-1.2475,-1.2482,0,0,0,0,0,-1.2617,-1.2607,-1.259,-1.258,-1.2575,-1.256,-1.2553,-1.2546,-1.2533,-1.2527,-1.2515,-1.2501,-1.2488,-1.248,-1.2467,-1.2453,-1.2448,-1.2448,-1.2448,-1.2448,-1.2447,-1.2438,-1.2437,-1.2445,-1.2445,-1.2445,0,0,-1.2618,-1.2606,-1.2601,-1.2582,-1.2572,-1.2561,-1.2556,-1.2545,-1.2536,-1.2525,-1.2511,-1.2501,-1.2485,-1.247,-1.2463,-1.2462,-1.2444,-1.2447,-1.2448,-1.2446,-1.2437,-1.2436,-1.2436,-1.2444,-1.2444,-1.2444,0,0,-1.2615,-1.2606,-1.2597,-1.2586,-1.2571,-1.2562,-1.256,-1.2543,-1.2536,-1.2521,-1.2512,-1.2501,-1.2479,-1.2468,-1.246,-1.2452,-1.2445,-1.2448,-1.2448,-1.2439,-1.2439,-1.2438,-1.2434,-1.2433,-1.2447,-1.2447,-1.2447,0,-1.2619,-1.2603,-1.2592,-1.2581,-1.2573,-1.2563,-1.2553,-1.2543,-1.2524,-1.2518,-1.2518,-1.2489,-1.2478,-1.246,-1.2458,-1.2452,-1.2448,-1.245,-1.244,-1.2439,-1.2438,-1.2435,-1.2433,-1.2447,-1.2447,-1.2447,-1.2447,0,-1.2608,-1.2597,-1.2591,-1.2573,-1.2564,-1.2554,-1.254,-1.2532,-1.2526,-1.2516,-1.25,-1.2486,-1.247,-1.2465,-1.2458,-1.2446,-1.2446,-1.2443,-1.2441,-1.2438,-1.2434,-1.2433,-1.2448,-1.2447,-1.2447,-1.2447,0,0,-1.2611,-1.2587,-1.2585,-1.2577,-1.2559,-1.255,-1.2538,-1.2523,-1.2516,-1.2503,-1.2492,-1.2473,-1.247,-1.246,-1.2452,-1.2445,-1.2438,-1.2442,-1.2441,-1.2441,-1.2422,-1.2425,-1.2423,-1.2434,-1.2434,-1.2433,-1.2424,0,-1.2605,-1.2585,-1.2575,-1.2559,-1.2548,-1.2538,-1.2528,-1.2515,-1.2505,-1.2494,-1.2483,-1.247,-1.2467,-1.2461,-1.2453,-1.2441,-1.2434,-1.2441,-1.2423,-1.2422,-1.2427,-1.2422,-1.2424,-1.2415,-1.2422,-1.2422,-1.2422,0,-1.2596,-1.2584,-1.2567,-1.255,-1.2544,-1.2536,-1.252,-1.251,-1.2495,-1.2488,-1.2477,-1.2469,-1.2455,-1.2455,-1.2435,-1.244,-1.2432,-1.2425,-1.2424,-1.2421,-1.2422,-1.2418,-1.2413,-1.2411,-1.242,-1.242,-1.242,0,-1.2599,-1.2578,-1.2565,-1.2558,-1.2538,-1.2532,-1.2523,-1.2508,-1.2499,-1.2485,-1.2479,-1.2464,-1.2455,-1.2443,-1.243,-1.2432,-1.2412,-1.241,-1.2405,-1.2405,-1.2401,-1.2401,-1.2393,-1.2396,-1.2396,-1.2397,-1.2397,0,-1.2594,-1.2584,-1.2566,-1.2558,-1.2546,-1.2534,-1.2522,-1.2512,-1.2499,-1.2488,-1.2478,-1.2468,-1.2452,-1.2439,-1.2429,-1.2414,-1.241,-1.2404,-1.2401,-1.2404,-1.2405,-1.2398,-1.2398,-1.2396,-1.2396,-1.2396,-1.2396,0,-1.2596,-1.2584,-1.2569,-1.255,-1.2546,-1.2537,-1.2521,-1.2512,-1.2502,-1.2488,-1.2484,-1.2468,-1.2453,-1.2439,-1.2418,-1.2411,-1.2395,-1.2392,-1.2401,-1.2399,-1.2394,-1.2394,-1.2381,-1.2378,-1.2384,-1.2384,-1.2384,0,-1.2593,-1.2585,-1.2566,-1.2558,-1.2549,-1.2537,-1.2528,-1.2515,-1.2506,-1.2488,-1.2481,-1.2465,-1.2451,-1.2427,-1.2412,-1.2396,-1.2392,-1.2389,-1.239,-1.2393,-1.2391,-1.2392,-1.239,-1.2388,-1.2389,-1.2389,-1.2389,0,-1.2589,-1.2583,-1.2571,-1.2556,-1.2546,-1.2533,-1.2521,-1.2514,-1.2499,-1.2489,-1.2473,-1.2463,-1.2442,-1.2425,-1.2408,-1.2397,-1.239,-1.2388,-1.2386,-1.2389,-1.2394,-1.239,-1.24,-1.2389,-1.2389,-1.2389,-1.2389,-1.2389,-1.2588,-1.258,-1.2565,-1.2551,-1.254,-1.2528,-1.2519,-1.2508,-1.2495,-1.2477,-1.247,-1.2454,-1.2437,-1.2413,-1.2403,-1.2389,-1.2388,-1.2384,-1.2384,-1.2383,-1.2383,-1.2397,-1.2386,-1.2386,-1.2386,-1.2386,-1.2386,0,-1.2583,-1.2573,-1.256,-1.2543,-1.2531,-1.2526,-1.2512,-1.2502,-1.2488,-1.2475,-1.2461,-1.2443,-1.2427,-1.2411,-1.2394,-1.2386,-1.2382,-1.2382,-1.2382,-1.2379,-1.2386,-1.2389,-1.2385,-1.2385,-1.2385,-1.2385,-1.2385,-1.2385,-1.2579,-1.2565,-1.2557,-1.2537,-1.2527,-1.2511,-1.2503,-1.2492,-1.248,-1.246,-1.2447,-1.2437,-1.2422,-1.2404,-1.2388,-1.2384,-1.2378,-1.2378,-1.2373,-1.2379,-1.2379,-1.2379,-1.2382,-1.2377,-1.2377,-1.2368,-1.2368,-1.2368]}]]